| time (UTC) | temp C | wind direction | speed KPH | gust KPH | rain 1hr cm | rain 24hr cm | rain mn cm | humidity % | barometer mb |
| 20260507002528 | 10 | 338 | 1.6 | 8.0 | 0.05 | 0.89 | 0.89 | 90 | 1006.1 |
| 20260507002103 | 10 | 301 | 4.8 | 8.0 | 0.05 | 0.89 | 0.89 | 89 | 1006.1 |
| 20260507001528 | 10 | 252 | 1.6 | 4.8 | 0.05 | 0.89 | 0.89 | 90 | 1006.4 |
| 20260507001041 | 10 | 211 | 1.6 | 4.8 | 0.05 | 0.89 | 0.89 | 89 | 1006.4 |
| 20260507000525 | 11 | 262 | 0.0 | 6.4 | 0.05 | 0.89 | 0.89 | 89 | 1006.3 |
| 20260507000040 | 11 | 318 | 3.2 | 8.0 | 0.05 | 0.89 | 0.89 | 89 | 1006.1 |
| 20260506235534 | 11 | 221 | 0.0 | 11.3 | 0.05 | 0.89 | 0.89 | 88 | 1006.2 |
| 20260506235038 | 12 | 298 | 4.8 | 11.3 | 0.05 | 0.89 | 0.89 | 87 | 1006.0 |
| 20260506234551 | 12 | 311 | 3.2 | 16.1 | 0.03 | 0.86 | 0.86 | 87 | 1005.9 |
| 20260506234025 | 13 | 214 | 4.8 | 16.1 | 0.03 | 0.86 | 0.86 | 87 | 1005.6 |
| 20260506233556 | 13 | 280 | 4.8 | 12.9 | 0.00 | 0.84 | 0.84 | 91 | 1005.3 |
| 20260506233049 | 14 | 189 | 0.0 | 3.2 | 0.00 | 0.84 | 0.84 | 91 | 1004.7 |
| 20260506232532 | 14 | 178 | 1.6 | 3.2 | 0.03 | 0.84 | 0.84 | 91 | 1004.7 |
| 20260506232047 | 14 | 189 | 0.0 | 1.6 | 0.03 | 0.84 | 0.84 | 91 | 1004.7 |
| 20260506231532 | 14 | 189 | 0.0 | 4.8 | 0.03 | 0.84 | 0.84 | 91 | 1004.6 |
| 20260506231026 | 14 | 189 | 1.6 | 8.0 | 0.03 | 0.84 | 0.84 | 91 | 1004.7 |
| 20260506230532 | 14 | 142 | 1.6 | 8.0 | 0.03 | 0.84 | 0.84 | 91 | 1004.7 |
| 20260506230024 | 14 | 178 | 0.0 | 4.8 | 0.03 | 0.84 | 0.84 | 91 | 1004.8 |
| 20260506225540 | 14 | 179 | 0.0 | 4.8 | 0.03 | 0.84 | 0.84 | 91 | 1004.7 |
| 20260506225023 | 14 | 179 | 1.6 | 4.8 | 0.05 | 0.84 | 0.84 | 91 | 1004.7 |
| 20260506224538 | 14 | 148 | 1.6 | 4.8 | 0.05 | 0.84 | 0.84 | 91 | 1004.7 |
| 20260506224025 | 14 | 147 | 0.0 | 4.8 | 0.05 | 0.84 | 0.84 | 91 | 1004.6 |
| 20260506223600 | 14 | 178 | 1.6 | 3.2 | 0.08 | 0.84 | 0.84 | 91 | 1004.6 |
| 20260506223033 | 14 | 221 | 0.0 | 1.6 | 0.08 | 0.84 | 0.84 | 91 | 1004.6 |
| 20260506222547 | 14 | 221 | 0.0 | 3.2 | 0.05 | 0.81 | 0.81 | 91 | 1004.7 |
| 20260506222031 | 14 | 222 | 1.6 | 4.8 | 0.08 | 0.81 | 0.81 | 91 | 1004.7 |
| 20260506221525 | 14 | 222 | 0.0 | 4.8 | 0.08 | 0.81 | 0.81 | 91 | 1004.7 |
| 20260506221039 | 14 | 178 | 1.6 | 6.4 | 0.08 | 0.81 | 0.81 | 91 | 1004.6 |
| 20260506220611 | 14 | 179 | 0.0 | 12.9 | 0.08 | 0.81 | 0.81 | 91 | 1004.7 |
| 20260506220036 | 14 | 313 | 3.2 | 12.9 | 0.08 | 0.81 | 0.81 | 91 | 1004.7 |
| 20260506215529 | 14 | 257 | 0.0 | 3.2 | 0.08 | 0.81 | 0.81 | 91 | 1004.8 |
| 20260506215029 | 14 | 313 | 1.6 | 4.8 | 0.05 | 0.79 | 0.79 | 91 | 1004.7 |
| 20260506214523 | 14 | 311 | 1.6 | 4.8 | 0.05 | 0.79 | 0.79 | 91 | 1004.7 |
| 20260506214029 | 14 | 132 | 0.0 | 3.2 | 0.05 | 0.79 | 0.79 | 91 | 1004.8 |
| 20260506213524 | 14 | 134 | 0.0 | 4.8 | 0.03 | 0.76 | 0.76 | 91 | 1004.8 |
| 20260506213059 | 14 | 132 | 1.6 | 4.8 | 0.03 | 0.76 | 0.76 | 91 | 1004.7 |
| 20260506212524 | 14 | 138 | 1.6 | 6.4 | 0.03 | 0.76 | 0.76 | 91 | 1004.8 |
| 20260506212037 | 14 | 183 | 1.6 | 8.0 | 0.00 | 0.74 | 0.74 | 91 | 1004.8 |
| 20260506211551 | 14 | 136 | 3.2 | 8.0 | 0.00 | 0.74 | 0.74 | 91 | 1004.7 |
| 20260506211044 | 14 | 121 | 1.6 | 8.0 | 0.03 | 0.74 | 0.74 | 91 | 1004.7 |
| 20260506210559 | 14 | 106 | 1.6 | 12.9 | 0.03 | 0.74 | 0.74 | 90 | 1004.7 |
| 20260506210023 | 14 | 298 | 1.6 | 4.8 | 0.03 | 0.74 | 0.74 | 90 | 1004.7 |
| 20260506205539 | 14 | 107 | 1.6 | 4.8 | 0.05 | 0.74 | 0.74 | 90 | 1004.7 |
| 20260506205025 | 14 | 167 | 0.0 | 8.0 | 0.08 | 0.74 | 0.74 | 90 | 1004.8 |
| 20260506204541 | 14 | 194 | 1.6 | 8.0 | 0.10 | 0.74 | 0.74 | 91 | 1004.8 |
| 20260506204026 | 14 | 284 | 1.6 | 6.4 | 0.10 | 0.74 | 0.74 | 91 | 1004.9 |
| 20260506203539 | 14 | 217 | 0.0 | 8.0 | 0.13 | 0.74 | 0.74 | 90 | 1004.8 |
| 20260506203035 | 14 | 217 | 3.2 | 8.0 | 0.15 | 0.74 | 0.74 | 90 | 1004.9 |
| 20260506202540 | 14 | 328 | 0.0 | 4.8 | 0.15 | 0.74 | 0.74 | 90 | 1004.9 |
| 20260506202035 | 14 | 144 | 1.6 | 4.8 | 0.18 | 0.74 | 0.74 | 90 | 1005.0 |
| 20260506201546 | 14 | 269 | 1.6 | 6.4 | 0.18 | 0.74 | 0.74 | 90 | 1005.0 |
| 20260506201032 | 14 | 330 | 1.6 | 6.4 | 0.18 | 0.71 | 0.71 | 90 | 1005.0 |
| 20260506200539 | 14 | 197 | 0.0 | 3.2 | 0.18 | 0.71 | 0.71 | 90 | 1005.0 |
| 20260506200025 | 14 | 198 | 0.0 | 4.8 | 0.18 | 0.69 | 0.69 | 90 | 1005.2 |
| 20260506195540 | 14 | 198 | 1.6 | 6.4 | 0.20 | 0.69 | 0.69 | 90 | 1005.2 |
| 20260506195025 | 14 | 289 | 0.0 | 6.4 | 0.23 | 0.66 | 0.66 | 90 | 1005.2 |
| 20260506194539 | 14 | 216 | 0.0 | 4.8 | 0.23 | 0.64 | 0.64 | 90 | 1005.3 |
| 20260506194033 | 14 | 216 | 1.6 | 4.8 | 0.23 | 0.64 | 0.64 | 89 | 1005.3 |
| 20260506193538 | 14 | 65 | 1.6 | 8.0 | 0.20 | 0.61 | 0.61 | 89 | 1005.3 |
| 20260506193032 | 14 | 134 | 3.2 | 8.0 | 0.20 | 0.58 | 0.58 | 89 | 1005.4 |
| 20260506192548 | 15 | 119 | 0.0 | 4.8 | 0.20 | 0.58 | 0.58 | 89 | 1005.4 |
| 20260506192034 | 15 | 107 | 1.6 | 8.0 | 0.18 | 0.56 | 0.56 | 89 | 1005.4 |
| 20260506191528 | 15 | 145 | 4.8 | 8.0 | 0.18 | 0.56 | 0.56 | 89 | 1005.4 |
| 20260506191041 | 15 | 173 | 1.6 | 8.0 | 0.15 | 0.53 | 0.53 | 89 | 1005.4 |
| 20260506190525 | 15 | 105 | 1.6 | 6.4 | 0.18 | 0.53 | 0.53 | 89 | 1005.4 |
| 20260506190059 | 15 | 155 | 3.2 | 9.7 | 0.15 | 0.51 | 0.51 | 89 | 1005.4 |
| 20260506185533 | 15 | 142 | 4.8 | 9.7 | 0.15 | 0.48 | 0.48 | 88 | 1005.5 |
| 20260506185038 | 15 | 143 | 3.2 | 8.0 | 0.10 | 0.43 | 0.43 | 90 | 1005.6 |
| 20260506184532 | 15 | 153 | 1.6 | 4.8 | 0.08 | 0.41 | 0.41 | 89 | 1005.6 |
| 20260506184047 | 15 | 155 | 0.0 | 6.4 | 0.10 | 0.41 | 0.41 | 89 | 1005.5 |
| 20260506183533 | 15 | 147 | 0.0 | 6.4 | 0.10 | 0.41 | 0.41 | 89 | 1005.5 |
| 20260506183046 | 15 | 53 | 1.6 | 4.8 | 0.08 | 0.38 | 0.38 | 89 | 1005.6 |
| 20260506182531 | 15 | 162 | 1.6 | 8.0 | 0.08 | 0.38 | 0.38 | 89 | 1005.6 |
| 20260506182044 | 15 | 136 | 0.0 | 8.0 | 0.10 | 0.38 | 0.38 | 89 | 1005.9 |
| 20260506181533 | 15 | 145 | 0.0 | 4.8 | 0.10 | 0.38 | 0.38 | 90 | 1005.7 |
| 20260506181039 | 15 | 145 | 1.6 | 4.8 | 0.13 | 0.38 | 0.38 | 90 | 1005.8 |
| 20260506180534 | 15 | 118 | 0.0 | 3.2 | 0.13 | 0.36 | 0.36 | 90 | 1005.9 |
| 20260506180049 | 15 | 201 | 1.6 | 6.4 | 0.15 | 0.36 | 0.36 | 89 | 1006.0 |
| 20260506175533 | 15 | 156 | 1.6 | 4.8 | 0.15 | 0.33 | 0.33 | 90 | 1006.0 |
| 20260506175047 | 15 | 217 | 0.0 | 4.8 | 0.18 | 0.33 | 0.33 | 89 | 1006.1 |
| 20260506174532 | 15 | 31 | 0.0 | 3.2 | 0.23 | 0.33 | 0.33 | 89 | 1006.1 |
| 20260506174026 | 15 | 174 | 0.0 | 3.2 | 0.23 | 0.30 | 0.30 | 89 | 1006.1 |
| 20260506173531 | 15 | 167 | 0.0 | 3.2 | 0.25 | 0.30 | 0.30 | 89 | 1006.1 |
| 20260506173024 | 15 | 135 | 0.0 | 3.2 | 0.28 | 0.30 | 0.30 | 89 | 1006.1 |
| 20260506172538 | 15 | 135 | 1.6 | 3.2 | 0.28 | 0.30 | 0.30 | 89 | 1006.2 |
| 20260506172111 | 15 | 109 | 0.0 | 1.6 | 0.25 | 0.28 | 0.28 | 89 | 1006.3 |
| 20260506171534 | 15 | 109 | 0.0 | 1.6 | 0.28 | 0.28 | 0.28 | 89 | 1006.4 |
| 20260506171028 | 15 | 109 | 0.0 | 3.2 | 0.25 | 0.25 | 0.25 | 88 | 1006.6 |
| 20260506170539 | 15 | 109 | 0.0 | 3.2 | 0.23 | 0.23 | 0.23 | 87 | 1006.8 |
| 20260506170039 | 15 | 98 | 0.0 | 4.8 | 0.20 | 0.20 | 0.20 | 87 | 1007.0 |
| 20260506165551 | 15 | 160 | 1.6 | 4.8 | 0.18 | 0.18 | 0.18 | 87 | 1007.3 |
| 20260506165042 | 15 | 94 | 0.0 | 3.2 | 0.15 | 0.15 | 0.15 | 86 | 1007.3 |
| 20260506164528 | 15 | 129 | 0.0 | 4.8 | 0.10 | 0.10 | 0.10 | 85 | 1007.4 |
| 20260506164044 | 15 | 129 | 1.6 | 4.8 | 0.08 | 0.08 | 0.08 | 84 | 1007.2 |
| 20260506163531 | 15 | 105 | 0.0 | 4.8 | 0.05 | 0.05 | 0.05 | 85 | 1007.2 |
| 20260506163047 | 15 | 106 | 1.6 | 4.8 | 0.03 | 0.03 | 0.03 | 83 | 1007.1 |
| 20260506162529 | 16 | 170 | 0.0 | 4.8 | 0.03 | 0.03 | 0.03 | 82 | 1007.2 |
| 20260506162045 | 16 | 206 | 0.0 | 3.2 | 0.03 | 0.03 | 0.03 | 83 | 1007.2 |
| 20260506161538 | 16 | 230 | 1.6 | 4.8 | 0.00 | 0.00 | 0.00 | 81 | 1007.3 |
| 20260506161023 | 16 | 228 | 1.6 | 4.8 | 0.00 | 0.00 | 0.00 | 79 | 1007.4 |
| 20260506160534 | 16 | 355 | 0.0 | 6.4 | 0.00 | 0.00 | 0.00 | 80 | 1007.4 |
| 20260506160047 | 16 | 190 | 0.0 | 8.0 | 0.00 | 0.00 | 0.00 | 79 | 1007.5 |
| 20260506155551 | 16 | 311 | 3.2 | 8.0 | 0.00 | 0.00 | 0.00 | 77 | 1007.5 |
| 20260506155023 | 16 | 150 | 3.2 | 6.4 | 0.00 | 0.00 | 0.00 | 78 | 1007.5 |
| 20260506154536 | 16 | 355 | 0.0 | 4.8 | 0.00 | 0.00 | 0.00 | 77 | 1007.5 |
| 20260506154040 | 16 | 143 | 1.6 | 4.8 | 0.00 | 0.00 | 0.00 | 77 | 1007.6 |
| 20260506153554 | 16 | 167 | 1.6 | 6.4 | 0.00 | 0.00 | 0.00 | 76 | 1007.6 |
| 20260506153027 | 16 | 323 | 1.6 | 9.7 | 0.00 | 0.00 | 0.00 | 76 | 1007.7 |
| 20260506152533 | 16 | 297 | 3.2 | 9.7 | 0.00 | 0.00 | 0.00 | 75 | 1007.7 |
| 20260506152028 | 16 | 167 | 1.6 | 8.0 | 0.00 | 0.00 | 0.00 | 75 | 1007.8 |
| 20260506151603 | 16 | 309 | 4.8 | 8.0 | 0.00 | 0.00 | 0.00 | 75 | 1007.9 |
| 20260506151026 | 16 | 5 | 1.6 | 4.8 | 0.00 | 0.00 | 0.00 | 76 | 1007.8 |
| 20260506150535 | 16 | 175 | 0.0 | 8.0 | 0.00 | 0.00 | 0.00 | 76 | 1008.0 |
| 20260506150048 | 16 | 51 | 3.2 | 8.0 | 0.00 | 0.00 | 0.00 | 76 | 1008.1 |
| 20260506145534 | 16 | 128 | 3.2 | 4.8 | 0.00 | 0.00 | 0.00 | 75 | 1008.1 |
| 20260506145028 | 16 | 33 | 1.6 | 4.8 | 0.00 | 0.00 | 0.00 | 75 | 1008.1 |
| 20260506144533 | 16 | 164 | 1.6 | 4.8 | 0.00 | 0.00 | 0.00 | 75 | 1008.2 |
| 20260506144025 | 16 | 236 | 0.0 | 12.9 | 0.00 | 0.00 | 0.00 | 76 | 1008.1 |
| 20260506143538 | 16 | 242 | 3.2 | 12.9 | 0.00 | 0.00 | 0.00 | 75 | 1008.2 |
| 20260506143025 | 16 | 182 | 1.6 | 11.3 | 0.00 | 0.00 | 0.00 | 74 | 1008.1 |
| 20260506142541 | 17 | 227 | 1.6 | 6.4 | 0.00 | 0.00 | 0.00 | 75 | 1008.0 |
| 20260506142055 | 17 | 297 | 3.2 | 6.4 | 0.00 | 0.00 | 0.00 | 74 | 1008.0 |
| 20260506141539 | 17 | 307 | 3.2 | 6.4 | 0.00 | 0.00 | 0.00 | 75 | 1008.1 |
| 20260506141032 | 17 | 265 | 1.6 | 4.8 | 0.00 | 0.00 | 0.00 | 75 | 1008.2 |
| 20260506140546 | 17 | 247 | 0.0 | 4.8 | 0.00 | 0.00 | 0.00 | 75 | 1008.2 |
| 20260506140031 | 17 | 192 | 0.0 | 8.0 | 0.00 | 0.00 | 0.00 | 74 | 1008.0 |
| 20260506135525 | 17 | 182 | 3.2 | 8.0 | 0.00 | 0.00 | 0.00 | 74 | 1007.9 |
| 20260506135040 | 17 | 182 | 3.2 | 6.4 | 0.00 | 0.00 | 0.00 | 74 | 1007.9 |
| 20260506134525 | 17 | 224 | 1.6 | 4.8 | 0.00 | 0.00 | 0.00 | 74 | 1008.1 |
| 20260506134040 | 17 | 257 | 1.6 | 4.8 | 0.00 | 0.00 | 0.00 | 74 | 1007.9 |
| 20260506133525 | 17 | 257 | 1.6 | 12.9 | 0.00 | 0.00 | 0.00 | 75 | 1007.8 |
| 20260506133059 | 17 | 336 | 6.4 | 12.9 | 0.00 | 0.00 | 0.00 | 75 | 1007.7 |
| 20260506132546 | 16 | 289 | 1.6 | 8.0 | 0.00 | 0.00 | 0.00 | 76 | 1007.6 |
| 20260506132039 | 16 | 306 | 3.2 | 6.4 | 0.00 | 0.00 | 0.00 | 77 | 1007.8 |
| 20260506131553 | 16 | 180 | 1.6 | 6.4 | 0.00 | 0.00 | 0.00 | 77 | 1007.8 |
| 20260506131035 | 16 | 268 | 3.2 | 8.0 | 0.00 | 0.00 | 0.00 | 77 | 1007.7 |
| 20260506130550 | 16 | 218 | 4.8 | 8.0 | 0.00 | 0.00 | 0.00 | 77 | 1007.7 |
| 20260506130041 | 16 | 177 | 3.2 | 11.3 | 0.00 | 0.00 | 0.00 | 77 | 1007.9 |
| 20260506125552 | 16 | 136 | 3.2 | 11.3 | 0.00 | 0.00 | 0.00 | 77 | 1008.1 |
| 20260506125043 | 16 | 203 | 0.0 | 3.2 | 0.00 | 0.00 | 0.00 | 78 | 1008.2 |
| 20260506124529 | 16 | 251 | 0.0 | 4.8 | 0.00 | 0.00 | 0.00 | 78 | 1008.1 |
| 20260506124043 | 16 | 209 | 1.6 | 6.4 | 0.00 | 0.00 | 0.00 | 79 | 1008.3 |
| 20260506123558 | 16 | 126 | 0.0 | 6.4 | 0.00 | 0.00 | 0.00 | 79 | 1008.3 |
| 20260506123040 | 16 | 215 | 1.6 | 4.8 | 0.00 | 0.00 | 0.00 | 79 | 1008.4 |
| 20260506122535 | 15 | 254 | 1.6 | 4.8 | 0.00 | 0.00 | 0.00 | 80 | 1008.4 |
| 20260506122050 | 15 | 227 | 0.0 | 9.7 | 0.00 | 0.00 | 0.00 | 80 | 1008.5 |
| 20260506121536 | 15 | 155 | 1.6 | 9.7 | 0.00 | 0.00 | 0.00 | 80 | 1008.5 |
| 20260506121024 | 15 | 9 | 1.6 | 6.4 | 0.00 | 0.00 | 0.00 | 80 | 1008.5 |
| 20260506120536 | 15 | 265 | 1.6 | 6.4 | 0.00 | 0.00 | 0.00 | 81 | 1008.4 |
| 20260506120027 | 15 | 177 | 3.2 | 6.4 | 0.00 | 0.00 | 0.00 | 81 | 1008.3 |
| 20260506115557 | 15 | 157 | 0.0 | 6.4 | 0.00 | 0.00 | 0.00 | 82 | 1008.4 |
| 20260506115040 | 14 | 150 | 3.2 | 6.4 | 0.00 | 0.00 | 0.00 | 83 | 1008.3 |
| 20260506114535 | 13 | 224 | 3.2 | 6.4 | 0.00 | 0.00 | 0.00 | 84 | 1008.3 |
| 20260506114048 | 13 | 324 | 1.6 | 4.8 | 0.00 | 0.00 | 0.00 | 85 | 1008.3 |
| 20260506113533 | 13 | 323 | 0.0 | 4.8 | 0.00 | 0.00 | 0.00 | 85 | 1008.3 |
| 20260506113047 | 13 | 242 | 1.6 | 4.8 | 0.00 | 0.00 | 0.00 | 86 | 1008.4 |
| 20260506112541 | 13 | 17 | 0.0 | 0.0 | 0.00 | 0.00 | 0.00 | 86 | 1008.1 |
| 20260506112027 | 12 | 17 | 0.0 | 0.0 | 0.00 | 0.00 | 0.00 | 86 | 1008.5 |
| 20260506111603 | 12 | 17 | 0.0 | 0.0 | 0.00 | 0.00 | 0.00 | 86 | 1008.3 |
| 20260506111056 | 12 | 17 | 0.0 | 0.0 | 0.00 | 0.00 | 0.00 | 86 | 1008.3 |
| 20260506110549 | 12 | 17 | 0.0 | 0.0 | 0.00 | 0.00 | 0.00 | 86 | 1008.3 |
| 20260506110043 | 12 | 16 | 0.0 | 0.0 | 0.00 | 0.00 | 0.00 | 86 | 1008.2 |
| 20260506105527 | 12 | 15 | 0.0 | 0.0 | 0.00 | 0.00 | 0.00 | 87 | 1008.2 |
| 20260506105043 | 12 | 15 | 0.0 | 1.6 | 0.00 | 0.00 | 0.00 | 87 | 1008.2 |
| 20260506104529 | 12 | 14 | 0.0 | 6.4 | 0.00 | 0.00 | 0.00 | 87 | 1008.3 |
| 20260506104024 | 11 | 13 | 0.0 | 6.4 | 0.00 | 0.00 | 0.00 | 87 | 1008.6 |
| 20260506103553 | 11 | 236 | 0.0 | 1.6 | 0.00 | 0.00 | 0.00 | 86 | 1008.5 |
| 20260506103038 | 11 | 236 | 0.0 | 1.6 | 0.00 | 0.00 | 0.00 | 86 | 1008.3 |
| 20260506102533 | 11 | 236 | 0.0 | 0.0 | 0.00 | 0.00 | 0.00 | 86 | 1008.3 |
| 20260506102046 | 11 | 236 | 0.0 | 0.0 | 0.00 | 0.00 | 0.00 | 86 | 1008.2 |
| 20260506101550 | 11 | 236 | 0.0 | 1.6 | 0.00 | 0.00 | 0.00 | 86 | 1008.3 |
| 20260506101023 | 11 | 236 | 0.0 | 1.6 | 0.00 | 0.00 | 0.00 | 86 | 1008.3 |
| 20260506100538 | 11 | 237 | 0.0 | 0.0 | 0.00 | 0.00 | 0.00 | 85 | 1008.2 |
| 20260506100024 | 11 | 236 | 0.0 | 0.0 | 0.00 | 0.00 | 0.00 | 85 | 1008.1 |
| 20260506095559 | 11 | 236 | 0.0 | 0.0 | 0.00 | 0.00 | 0.00 | 85 | 1008.0 |
| 20260506095031 | 11 | 236 | 0.0 | 0.0 | 0.00 | 0.00 | 0.00 | 84 | 1007.9 |
| 20260506094536 | 11 | 239 | 0.0 | 0.0 | 0.00 | 0.00 | 0.00 | 84 | 1008.1 |
| 20260506094030 | 11 | 250 | 0.0 | 0.0 | 0.00 | 0.00 | 0.00 | 83 | 1008.0 |
| 20260506093543 | 11 | 250 | 0.0 | 1.6 | 0.00 | 0.00 | 0.00 | 83 | 1007.9 |
| 20260506093058 | 11 | 250 | 0.0 | 1.6 | 0.00 | 0.00 | 0.00 | 82 | 1007.9 |
| 20260506092541 | 11 | 250 | 0.0 | 1.6 | 0.00 | 0.00 | 0.00 | 82 | 1007.8 |
| 20260506092033 | 12 | 250 | 0.0 | 1.6 | 0.00 | 0.00 | 0.00 | 82 | 1007.9 |
| 20260506091537 | 12 | 250 | 0.0 | 0.0 | 0.00 | 0.00 | 0.00 | 82 | 1008.0 |
| 20260506091050 | 12 | 250 | 0.0 | 0.0 | 0.00 | 0.00 | 0.00 | 81 | 1008.1 |
| 20260506090522 | 12 | 250 | 0.0 | 0.0 | 0.00 | 0.00 | 0.00 | 81 | 1008.1 |
| 20260506090050 | 12 | 250 | 0.0 | 0.0 | 0.00 | 0.00 | 0.00 | 81 | 1008.1 |
| 20260506085602 | 12 | 250 | 0.0 | 0.0 | 0.00 | 0.00 | 0.00 | 80 | 1008.1 |
| 20260506085047 | 12 | 250 | 0.0 | 0.0 | 0.00 | 0.00 | 0.00 | 80 | 1008.1 |
| 20260506084539 | 12 | 250 | 0.0 | 0.0 | 0.00 | 0.00 | 0.00 | 79 | 1008.3 |
| 20260506084033 | 12 | 250 | 0.0 | 0.0 | 0.00 | 0.00 | 0.00 | 79 | 1008.2 |
| 20260506083606 | 13 | 250 | 0.0 | 0.0 | 0.00 | 0.00 | 0.00 | 78 | 1008.1 |
| 20260506083059 | 13 | 250 | 0.0 | 0.0 | 0.00 | 0.00 | 0.00 | 78 | 1008.0 |
| 20260506082541 | 13 | 250 | 0.0 | 0.0 | 0.00 | 0.00 | 0.00 | 78 | 1008.0 |
| 20260506082034 | 13 | 250 | 0.0 | 3.2 | 0.00 | 0.00 | 0.00 | 78 | 1008.1 |
| 20260506081550 | 13 | 250 | 0.0 | 3.2 | 0.00 | 0.00 | 0.00 | 77 | 1008.2 |
| 20260506081034 | 13 | 251 | 0.0 | 1.6 | 0.00 | 0.00 | 0.00 | 77 | 1008.2 |
| 20260506080544 | 13 | 250 | 0.0 | 3.2 | 0.00 | 0.00 | 0.00 | 77 | 1008.1 |
| 20260506073023 | 15 | 292 | 0.0 | 3.2 | 0.00 | 0.00 | 0.00 | 73 | 1008.1 |
| 20260506072538 | 15 | 294 | 0.0 | 1.6 | 0.00 | 0.00 | 0.00 | 72 | 1008.2 |
| 20260506072023 | 15 | 294 | 0.0 | 1.6 | 0.00 | 0.00 | 0.00 | 71 | 1008.2 |
| 20260506071539 | 15 | 295 | 0.0 | 1.6 | 0.00 | 0.00 | 0.00 | 70 | 1008.2 |
| 20260506071054 | 16 | 295 | 0.0 | 1.6 | 0.00 | 0.00 | 0.00 | 70 | 1008.3 |
| 20260506070548 | 16 | 295 | 0.0 | 3.2 | 0.00 | 0.00 | 0.00 | 69 | 1008.3 |
| 20260506062059 | 16 | 90 | 1.6 | 4.8 | 0.00 | 0.00 | 0.00 | 67 | 1008.3 |
| 20260506061532 | 16 | 300 | 1.6 | 4.8 | 0.00 | 0.00 | 0.00 | 67 | 1008.3 |
| 20260506061039 | 16 | 187 | 1.6 | 4.8 | 0.00 | 0.00 | 0.00 | 67 | 1008.3 |
| 20260506060531 | 16 | 283 | 1.6 | 4.8 | 0.00 | 0.00 | 0.00 | 66 | 1008.2 |
| 20260506051024 | 17 | 124 | 3.2 | 11.3 | 0.00 | 0.00 | 0.00 | 63 | 1008.5 |
| 20260506050530 | 17 | 189 | 1.6 | 4.8 | 0.00 | 0.00 | 0.00 | 63 | 1008.6 |
| 20260506045043 | 17 | 332 | 1.6 | 6.4 | 0.00 | 0.00 | 0.00 | 63 | 1008.5 |
| 20260506044528 | 17 | 331 | 1.6 | 6.4 | 0.00 | 0.00 | 0.00 | 63 | 1008.4 |
| 20260506044022 | 17 | 188 | 1.6 | 6.4 | 0.00 | 0.00 | 0.00 | 64 | 1008.5 |
| 20260506043536 | 17 | 302 | 1.6 | 9.7 | 0.00 | 0.00 | 0.00 | 63 | 1008.5 |
| 20260506043040 | 16 | 163 | 3.2 | 9.7 | 0.00 | 0.00 | 0.00 | 64 | 1008.5 |
| 20260506042554 | 16 | 164 | 1.6 | 3.2 | 0.00 | 0.00 | 0.00 | 66 | 1008.4 |
| 20260506042027 | 16 | 259 | 0.0 | 4.8 | 0.00 | 0.00 | 0.00 | 67 | 1008.3 |
| 20260506041555 | 16 | 121 | 1.6 | 4.8 | 0.00 | 0.00 | 0.00 | 68 | 1008.3 |
| 20260506041047 | 16 | 188 | 0.0 | 4.8 | 0.00 | 0.00 | 0.00 | 68 | 1008.3 |
| 20260506040533 | 16 | 177 | 1.6 | 4.8 | 0.00 | 0.00 | 0.00 | 68 | 1008.4 |
| 20260506040048 | 16 | 70 | 0.0 | 3.2 | 0.00 | 0.00 | 0.00 | 68 | 1008.4 |
| 20260506035530 | 16 | 69 | 1.6 | 3.2 | 0.00 | 0.00 | 0.00 | 68 | 1008.4 |
| 20260506035024 | 16 | 139 | 1.6 | 3.2 | 0.00 | 0.00 | 0.00 | 68 | 1008.5 |
| 20260506034531 | 16 | 138 | 1.6 | 1.6 | 0.00 | 0.00 | 0.00 | 67 | 1008.5 |
| 20260506034025 | 16 | 138 | 0.0 | 1.6 | 0.00 | 0.00 | 0.00 | 67 | 1008.5 |
| 20260506033539 | 16 | 138 | 0.0 | 1.6 | 0.00 | 0.00 | 0.00 | 67 | 1008.4 |
| 20260506033024 | 16 | 138 | 0.0 | 3.2 | 0.00 | 0.00 | 0.00 | 66 | 1008.3 |
| 20260506032539 | 16 | 138 | 1.6 | 4.8 | 0.00 | 0.00 | 0.00 | 67 | 1008.3 |
| 20260506032025 | 16 | 138 | 3.2 | 4.8 | 0.00 | 0.00 | 0.00 | 66 | 1008.3 |
| 20260506031539 | 16 | 152 | 1.6 | 4.8 | 0.00 | 0.00 | 0.00 | 66 | 1008.3 |
| 20260506031025 | 16 | 113 | 1.6 | 3.2 | 0.00 | 0.00 | 0.00 | 67 | 1008.3 |
| 20260506030539 | 16 | 104 | 0.0 | 4.8 | 0.00 | 0.00 | 0.00 | 67 | 1008.3 |
| 20260506030052 | 16 | 72 | 1.6 | 4.8 | 0.00 | 0.00 | 0.00 | 67 | 1008.4 |
| 20260506025546 | 16 | 64 | 0.0 | 3.2 | 0.00 | 0.00 | 0.00 | 68 | 1008.4 |
| 20260506025039 | 17 | 61 | 1.6 | 3.2 | 0.00 | 0.00 | 0.00 | 67 | 1008.3 |
| 20260506024525 | 17 | 184 | 0.0 | 3.2 | 0.00 | 0.00 | 0.00 | 67 | 1008.5 |
| 20260506024039 | 17 | 142 | 0.0 | 0.0 | 0.00 | 0.00 | 0.00 | 66 | 1008.4 |
| 20260506023524 | 17 | 142 | 0.0 | 0.0 | 0.00 | 0.00 | 0.00 | 66 | 1008.4 |
| 20260506023035 | 17 | 142 | 0.0 | 0.0 | 0.00 | 0.00 | 0.00 | 65 | 1008.5 |
| 20260506022550 | 17 | 142 | 0.0 | 0.0 | 0.00 | 0.00 | 0.00 | 65 | 1008.5 |
| 20260506022036 | 17 | 142 | 0.0 | 0.0 | 0.00 | 0.00 | 0.00 | 65 | 1008.5 |
| 20260506021531 | 17 | 142 | 0.0 | 0.0 | 0.00 | 0.00 | 0.00 | 64 | 1008.4 |
| 20260506021037 | 17 | 142 | 0.0 | 0.0 | 0.00 | 0.00 | 0.00 | 64 | 1008.4 |
| 20260506020549 | 18 | 142 | 0.0 | 0.0 | 0.00 | 0.00 | 0.00 | 63 | 1008.4 |
| 20260506015555 | 18 | 142 | 0.0 | 0.0 | 0.00 | 0.00 | 0.00 | 62 | 1008.3 |
| 20260506015049 | 18 | 142 | 0.0 | 0.0 | 0.00 | 0.00 | 0.00 | 62 | 1008.4 |
| 20260506014535 | 18 | 142 | 0.0 | 1.6 | 0.00 | 0.00 | 0.00 | 62 | 1008.3 |
| 20260506014029 | 18 | 142 | 0.0 | 1.6 | 0.00 | 0.00 | 0.00 | 62 | 1008.3 |
| 20260506013536 | 18 | 142 | 0.0 | 1.6 | 0.00 | 0.00 | 0.00 | 62 | 1008.2 |
| 20260506013029 | 18 | 142 | 0.0 | 1.6 | 0.00 | 0.00 | 0.00 | 62 | 1008.2 |
| 20260506012545 | 18 | 142 | 0.0 | 1.6 | 0.00 | 0.00 | 0.00 | 61 | 1008.2 |
| 20260506012030 | 18 | 142 | 0.0 | 1.6 | 0.00 | 0.00 | 0.00 | 61 | 1008.2 |
| 20260506011544 | 19 | 142 | 0.0 | 3.2 | 0.00 | 0.00 | 0.00 | 60 | 1008.2 |
| 20260506011030 | 19 | 142 | 0.0 | 4.8 | 0.00 | 0.00 | 0.00 | 60 | 1008.1 |
| 20260506010524 | 19 | 142 | 1.6 | 4.8 | 0.00 | 0.00 | 0.00 | 60 | 1008.1 |
| 20260506010100 | 19 | 136 | 1.6 | 3.2 | 0.00 | 0.00 | 0.00 | 60 | 1008.0 |
| 20260506005525 | 19 | 135 | 0.0 | 1.6 | 0.00 | 0.00 | 0.00 | 60 | 1007.9 |
| 20260506005035 | 20 | 135 | 0.0 | 1.6 | 0.00 | 0.00 | 0.00 | 59 | 1007.9 |
| 20260506004549 | 20 | 135 | 0.0 | 1.6 | 0.00 | 0.00 | 0.00 | 58 | 1007.9 |
| 20260506004035 | 20 | 135 | 0.0 | 3.2 | 0.00 | 0.00 | 0.00 | 58 | 1007.8 |
| 20260506003530 | 20 | 87 | 1.6 | 4.8 | 0.00 | 0.00 | 0.00 | 56 | 1007.8 |
| 20260506003037 | 20 | 76 | 0.0 | 4.8 | 0.00 | 0.00 | 0.00 | 56 | 1007.7 |